This is the latest recevied weather packets stored in our database for station/object SP4MAZ-13. If no packets are shown the sender has not sent any weather packets the latest 10 day(s).
| Time | Temp. | Humidity | Pressure | Rain* | Wind** | Luminosity | Snow |
|---|---|---|---|---|---|---|---|
| 1777966817 | 17.22° C | 58% | 2147.4 hPa | - | - | - | - |
| 1777966514 | 17.22° C | 57% | 2147.4 hPa | - | - | - | - |
| 1777966211 | 16.11° C | 64% | 2147.4 hPa | - | - | - | - |
| 1777965910 | 16.11° C | 64% | 2147.4 hPa | - | - | - | - |
| 1777965606 | 15.56° C | 69% | 2147.4 hPa | - | - | - | - |
| 1777965302 | 15° C | 72% | 2147.4 hPa | - | - | - | - |
| 1777964999 | 15° C | 76% | 2147.4 hPa | - | - | - | - |
| 1777964696 | 15° C | 78% | 2147.4 hPa | - | - | - | - |
| 1777964392 | 15° C | 79% | 2147.4 hPa | - | - | - | - |
| 1777964088 | 15° C | 79% | 2147.4 hPa | - | - | - | - |
| 1777963785 | 14.44° C | 78% | 2147.4 hPa | - | - | - | - |
| 1777963482 | 14.44° C | 80% | 2147.4 hPa | - | - | - | - |
| 1777963179 | 15° C | 74% | 2147.4 hPa | - | - | - | - |
| 1777962875 | 15.56° C | 70% | 2147.4 hPa | - | - | - | - |
| 1777962572 | 15° C | 75% | 2147.4 hPa | - | - | - | - |
| 1777962268 | 15° C | 78% | 2147.4 hPa | - | - | - | - |
| 1777961966 | 14.44° C | 84% | 2147.4 hPa | - | - | - | - |
| 1777961662 | 14.44° C | 84% | 2147.4 hPa | - | - | - | - |
| 1777961358 | 13.89° C | 84% | 2147.4 hPa | - | - | - | - |
| 1777961055 | 12.78° C | 92% | 2147.4 hPa | - | - | - | - |
| 1777960751 | 12.22° C | 96% | 2147.4 hPa | - | - | - | - |
| 1777960448 | 12.22° C | 99% | 2147.4 hPa | - | - | - | - |
| 1777960145 | 12.22° C | 99% | 2147.4 hPa | - | - | - | - |
| 1777959841 | 11.67° C | 99% | 2147.4 hPa | - | - | - | - |
| 1777959537 | 12.78° C | 94% | 2147.4 hPa | - | - | - | - |
* Rain since midnight (hover to see other rain measurements)
** Current wind speed in m/s (hover to see current wind gust speed)